When you browse on this site, cookies collect data to enhance your experience and personalize the content and advertising you see.
Visit our Privacy Policy to learn more. By continuing to use the site, you agree to this use of cookies and data.
  • In Netherlands
  • List of Countries
  • For 7 days
  • Water Temperature
  • Weather Map
  • Weather Widgets
  • user-avatar
    Login

    Hourly Weather Ryblovo

    Today, 2 June, Tuesday

    Time Temperature Precipitation Wind Pressure Humidity
    00:00 +6°C° 0 mm 4 mps 746 mmHg 90%
    01:00 +6°C° 0 mm 4 mps 747 mmHg 90%
    02:00 +6°C° 0 mm 4 mps 747 mmHg 90%
    03:00 +6°C° 0 mm 4 mps 746 mmHg 87%
    04:00 +6°C° 0 mm 5 mps 746 mmHg 85%
    05:00 +6°C° 0 mm 5 mps 746 mmHg 83%
    06:00 +7°C° 0 mm 6 mps 746 mmHg 76%
    07:00 +9°C° 0 mm 6 mps 746 mmHg 69%
    08:00 +10°C° 0 mm 6 mps 746 mmHg 62%
    09:00 +11°C° 0 mm 6 mps 746 mmHg 60%
    10:00 +13°C° 0 mm 6 mps 746 mmHg 58%
    11:00 +14°C° 0 mm 6 mps 746 mmHg 56%
    12:00 +13°C° 0.2 mm 6 mps 746 mmHg 63%
    13:00 +12°C° 0.2 mm 5 mps 746 mmHg 71%
    14:00 +11°C° 0.2 mm 4 mps 746 mmHg 78%
    15:00 +10°C° 0.1 mm 4 mps 745 mmHg 81%
    16:00 +10°C° 0.1 mm 4 mps 745 mmHg 85%
    17:00 +10°C° 0.1 mm 4 mps 745 mmHg 88%
    18:00 +8°C° 0.1 mm 4 mps 745 mmHg 89%
    19:00 +8°C° 0.1 mm 4 mps 745 mmHg 90%
    20:00 +8°C° 0.1 mm 5 mps 745 mmHg 90%
    21:00 +8°C° 0.2 mm 5 mps 744 mmHg 92%
    22:00 +8°C° 0.2 mm 4 mps 744 mmHg 93%
    23:00 +8°C° 0.2 mm 4 mps 744 mmHg 95%

    Tomorrow, 3 June, Wednesday

    Time Temperature Precipitation Wind Pressure Humidity
    00:00 +8°C° 0.3 mm 4 mps 744 mmHg 95%
    01:00 +8°C° 0.3 mm 4 mps 744 mmHg 96%
    02:00 +8°C° 0.3 mm 4 mps 744 mmHg 97%
    03:00 +8°C° 0.2 mm 4 mps 743 mmHg 97%
    04:00 +8°C° 0.2 mm 4 mps 743 mmHg 97%
    05:00 +10°C° 0.2 mm 3 mps 743 mmHg 97%
    06:00 +10°C° 0.1 mm 3 mps 743 mmHg 97%
    07:00 +10°C° 0.1 mm 3 mps 743 mmHg 97%
    08:00 +11°C° 0.1 mm 3 mps 743 mmHg 96%
    09:00 +11°C° 0 mm 3 mps 743 mmHg 95%
    10:00 +12°C° 0 mm 4 mps 743 mmHg 94%
    11:00 +12°C° 0 mm 4 mps 743 mmHg 93%
    12:00 +12°C° 0.9 mm 4 mps 743 mmHg 94%
    13:00 +12°C° 0.9 mm 3 mps 743 mmHg 96%
    14:00 +12°C° 0.9 mm 3 mps 743 mmHg 97%
    15:00 +12°C° 1.5 mm 3 mps 742 mmHg 97%
    16:00 +12°C° 1.5 mm 3 mps 742 mmHg 97%
    17:00 +13°C° 1.5 mm 2 mps 741 mmHg 97%
    18:00 +12°C° 1.5 mm 3 mps 741 mmHg 97%
    19:00 +13°C° 1.5 mm 3 mps 741 mmHg 97%
    20:00 +13°C° 1.5 mm 3 mps 741 mmHg 97%
    21:00 +13°C° 1.3 mm 3 mps 740 mmHg 97%
    22:00 +13°C° 1.3 mm 3 mps 740 mmHg 97%
    23:00 +13°C° 1.3 mm 3 mps 739 mmHg 98%

    Day after tomorrow, 4 June, Thursday

    Time Temperature Precipitation Wind Pressure Humidity
    00:00 +12°C° 1.2 mm 3 mps 739 mmHg 98%
    01:00 +12°C° 1.2 mm 3 mps 738 mmHg 98%
    02:00 +12°C° 1.2 mm 3 mps 738 mmHg 98%
    03:00 +12°C° 1 mm 3 mps 737 mmHg 98%
    04:00 +12°C° 1 mm 3 mps 736 mmHg 98%
    05:00 +13°C° 1 mm 2 mps 736 mmHg 98%
    06:00 +13°C° 0.5 mm 2 mps 735 mmHg 98%
    07:00 +13°C° 0.5 mm 2 mps 735 mmHg 97%
    08:00 +13°C° 0.5 mm 2 mps 735 mmHg 97%
    09:00 +14°C° 0.1 mm 2 mps 735 mmHg 93%
    10:00 +16°C° 0.1 mm 2 mps 735 mmHg 88%
    11:00 +17°C° 0.1 mm 2 mps 735 mmHg 84%
    12:00 +17°C° 0.4 mm 2 mps 736 mmHg 83%
    13:00 +18°C° 0.4 mm 3 mps 736 mmHg 82%
    14:00 +19°C° 0.4 mm 3 mps 736 mmHg 80%
    15:00 +18°C° 1.1 mm 3 mps 736 mmHg 83%
    16:00 +18°C° 1.1 mm 3 mps 737 mmHg 85%
    17:00 +17°C° 1.1 mm 3 mps 737 mmHg 88%
    18:00 +16°C° 0.8 mm 3 mps 737 mmHg 89%
    19:00 +15°C° 0.8 mm 2 mps 737 mmHg 91%
    20:00 +13°C° 0.8 mm 2 mps 738 mmHg 93%
    21:00 +13°C° 0 mm 2 mps 738 mmHg 94%
    22:00 +12°C° 0 mm 2 mps 738 mmHg 95%
    23:00 +10°C° 0 mm 2 mps 739 mmHg 97%

    5 June, Friday

    Time Temperature Precipitation Wind Pressure Humidity
    00:00 +9°C° 0 mm 2 mps 739 mmHg 97%
    01:00 +9°C° 0 mm 2 mps 739 mmHg 97%
    02:00 +9°C° 0 mm 2 mps 739 mmHg 97%
    03:00 +9°C° 0 mm 2 mps 740 mmHg 97%
    04:00 +10°C° 0 mm 2 mps 740 mmHg 96%
    05:00 +10°C° 0 mm 2 mps 740 mmHg 96%
    06:00 +12°C° 0.1 mm 3 mps 740 mmHg 91%
    07:00 +14°C° 0.1 mm 3 mps 740 mmHg 86%
    08:00 +16°C° 0.1 mm 3 mps 741 mmHg 82%
    09:00 +17°C° 0.8 mm 4 mps 740 mmHg 80%
    10:00 +18°C° 0.8 mm 4 mps 740 mmHg 78%
    11:00 +19°C° 0.8 mm 4 mps 740 mmHg 77%
    12:00 +19°C° 0.7 mm 4 mps 740 mmHg 76%
    13:00 +19°C° 0.7 mm 4 mps 740 mmHg 75%
    14:00 +19°C° 0.7 mm 3 mps 740 mmHg 74%
    15:00 +19°C° 0.7 mm 3 mps 740 mmHg 77%
    16:00 +19°C° 0.7 mm 3 mps 740 mmHg 80%
    17:00 +18°C° 0.7 mm 2 mps 740 mmHg 83%
    18:00 +17°C° 0.3 mm 2 mps 740 mmHg 86%
    19:00 +16°C° 0.3 mm 2 mps 740 mmHg 89%
    20:00 +14°C° 0.3 mm 2 mps 740 mmHg 92%
    21:00 +14°C° 0 mm 2 mps 740 mmHg 93%
    22:00 +13°C° 0 mm 2 mps 740 mmHg 94%
    23:00 +12°C° 0 mm 1 mps 740 mmHg 95%

    6 June, Saturday

    Time Temperature Precipitation Wind Pressure Humidity
    00:00 +12°C° 0 mm 1 mps 740 mmHg 95%
    01:00 +11°C° 0 mm 1 mps 740 mmHg 96%
    02:00 +11°C° 0 mm 1 mps 740 mmHg 96%
    03:00 +11°C° 0 mm 1 mps 740 mmHg 96%
    04:00 +12°C° 0 mm 1 mps 740 mmHg 95%
    05:00 +12°C° 0 mm 1 mps 740 mmHg 95%
    06:00 +14°C° 0 mm 1 mps 740 mmHg 90%
    07:00 +16°C° 0 mm 1 mps 741 mmHg 86%
    08:00 +17°C° 0 mm 2 mps 741 mmHg 81%
    09:00 +19°C° 0 mm 2 mps 740 mmHg 73%
    10:00 +20°C° 0 mm 2 mps 740 mmHg 65%
    11:00 +23°C° 0 mm 2 mps 740 mmHg 58%
    12:00 +23°C° 0.2 mm 2 mps 740 mmHg 58%
    13:00 +23°C° 0.2 mm 2 mps 740 mmHg 57%
    14:00 +23°C° 0.2 mm 2 mps 739 mmHg 57%
    15:00 +23°C° 0 mm 2 mps 739 mmHg 60%
    16:00 +23°C° 0 mm 2 mps 739 mmHg 63%
    17:00 +23°C° 0 mm 2 mps 739 mmHg 65%
    18:00 +20°C° 0 mm 2 mps 739 mmHg 74%
    19:00 +18°C° 0 mm 2 mps 739 mmHg 83%
    20:00 +16°C° 0 mm 2 mps 739 mmHg 92%
    21:00 +16°C° 0 mm 2 mps 738 mmHg 93%
    22:00 +15°C° 0 mm 2 mps 738 mmHg 95%
    23:00 +14°C° 0 mm 2 mps 738 mmHg 96%

    7 June, Sunday

    Time Temperature Precipitation Wind Pressure Humidity
    00:00 +15°C° 0.2 mm 2 mps 738 mmHg 97%
    01:00 +15°C° 0.2 mm 2 mps 738 mmHg 97%
    02:00 +15°C° 0.2 mm 2 mps 738 mmHg 98%
    03:00 +15°C° 0.4 mm 2 mps 738 mmHg 98%
    04:00 +15°C° 0.4 mm 2 mps 738 mmHg 98%
    05:00 +16°C° 0.4 mm 2 mps 738 mmHg 98%
    06:00 +17°C° 0.3 mm 2 mps 738 mmHg 96%
    07:00 +18°C° 0.3 mm 3 mps 738 mmHg 95%
    08:00 +18°C° 0.3 mm 3 mps 738 mmHg 93%
    09:00 +18°C° 0.1 mm 3 mps 738 mmHg 93%
    10:00 +18°C° 0.1 mm 3 mps 738 mmHg 92%
    11:00 +19°C° 0.1 mm 3 mps 738 mmHg 92%
    12:00 +20°C° 0.3 mm 3 mps 738 mmHg 87%
    13:00 +21°C° 0.3 mm 3 mps 738 mmHg 82%
    14:00 +22°C° 0.3 mm 3 mps 738 mmHg 77%
    15:00 +22°C° 1.1 mm 3 mps 738 mmHg 81%
    16:00 +22°C° 1.1 mm 3 mps 737 mmHg 84%
    17:00 +21°C° 1.1 mm 3 mps 737 mmHg 88%
    18:00 +20°C° 0.2 mm 3 mps 737 mmHg 90%
    19:00 +19°C° 0.2 mm 2 mps 737 mmHg 92%
    20:00 +18°C° 0.2 mm 2 mps 737 mmHg 94%
    21:00 +17°C° 0.2 mm 2 mps 737 mmHg 95%
    22:00 +17°C° 0.2 mm 2 mps 737 mmHg 96%
    23:00 +16°C° 0.2 mm 2 mps 737 mmHg 97%
    Show more